SCP
0 0 0 0 0 0 0 0 0 0 0 0 0 0 0 0 0 0 0 0 0 0 0 0 0 0 0 0 0 0 0 0 0 0 0 0 0 0 0 0 0 0 0 0
0 0 0 0 0 0 0 0 0 0 0 0 0 0 0 0 0 0 0 0 0 0 0 0 0 0 0 0 0 0 0 0 0 0 0 0 0 0 0 0 0 0 0 0
0 0 0 0 0 0 0 0 0 0 0 0 0 0 0 0 0 0 0 0 0 0 0 0 0 0 0 0 0 0 0 0 0 0 0 0 0 0 0 0 0 0 0 0
0 0 0 0 0 0 0 0 0 0 0 0 0 0 0 0 0 0 0 0 0 0 0 0 0 0 0 0 0 0 0 0 0 0 0 0 0 0 0 0 0 0 0 0
0 0 0 0 0 0 0 0 0 0 0 0 0 0 0 0 0 0 0 0 0 0 0 0 0 0 0 0 0 0 0 0 0 0 0 0 0 0 0 0 0 0 0 0
0 0 0 0 0 0 0 0 0 0 0 0 0 0 0 0 0 0 0 0 0 0 0 0 0 0 0 0 0 0 0 0 0 0 0 0 0 0 0 0 0 0 0 0
0 0 0 0 0 0 0 0 0 0 0 0 0 0 0 0 0 0 0 0 0 0 0 0 0 0 0 0 0 0 0 0 0 0 0 0 0 0 0 0 0 0 0 0
0 0 0 0 0 0 0 0 0 0 0 0 0 0 0 0 0 0 0 0 0 0 0 0 0 0 0 0 0 0 0 0 0 0 0 0 0 0 0 0 0 0 0 0
0 0 0 0 0 0 0 0 0 0 0 0 0 0 0 0 0 0 0 0 0 0 0 0 0 0 0 0 0 0 0 0 0 0 0 0 0 0 0 0 0 0 0 0
0 0 0 0 0 0 0 0 0 0 0 0 0 0 0 0 0 0 0 0 0 0 0 0 0 0 0 0 0 0 0 0 0 0 0 0 0 0 0 0 0 0 0 0
0 0 0 0 0 0 0 0 0 0 0 0 0 0 0 0 0 0 0 0 0 0 0 0 0 0 0 0 0 0 0 0 0 0 0 0 0 0 0 0 0 0 0 0
0 0 0 0 0 0 0 0 0 0 0 0 0 0 0 0 0 0 0 0 0 0 0 0 0 0 0 0 0 0 0 0 0 0 0 0 0 0 0 0 0 0 0 0
0 0 0 0 0 0 0 0 0 0 0 0 0 0 0 0 0 0 0 0 0 0 0 0 0 0 0 0 0 0 0 0 0 0 0 0 0 0 0 0 0 0 0 0
0 0 0 0 0 0 0 0 0 0 0 0 0 0 0 0 0 0 0 0 0 0 0 0 0 0 0 0 0 0 0 0 0 0 0 0 0 0 0 0 0 0 0 0
0 0 0 0 0 0 0 0 0 0 0 0 0 0 0 0 0 0 0 0 0 0 0 0 0 0 0 0 0 0 0 0 0 0 0 0 0 0 0 0 0 0 0 0
0 0 0 0 0 0 0 0 0 0 0 0 0 0 0 0 0 0 0 0 0 0 0 0 0 0 0 0 0 0 0 0 0 0 0 0 0 0 0 0 0 0 0 0
0 0 0 0 0 0 0 0 0 0 0 0 0 0 0 0 0 0 0 0 0 0 0 0 0 0 0 0 0 0 0 0 0 0 0 0 0 0 0 0 0 0 0 0
0 0 0 0 0 0 0 0 0 0 0 0 0 0 0 0 0 0 0 0 0 0 0 0 0 0 0 0 0 0 0 0 0 0 0 0 0 0 0 0 0 0 0 0
0 0 0 0 0 0 0 0 0 0 0 0 0 0 0 0 0 0 0 0 0 0 0 0 0 0 0 0 0 0 0 0 0 0 0 0 0 0 0 0 0 0 0 0
0 0 0 0 0 0 0 0 0 0 0 0 0 0 0 0 0 0 0 0 0 0 0 0 0 0 0 0 0 0 0 0 0 0 0 0 0 0 0 0 0 0 0 0
0 0 0 0 0 0 0 0 0 0 0 0 0 0 0 0 0 0 0 0 0 0 0 0 0 0 0 0 0 0 0 0 0 0 0 0 0 0 0 0 0 0 0 0
0 0 0 0 0 0 0 0 0 0 0 0 0 0 0 0 0 0 0 0 0 0 0 0 0 0 0 0 0 0 0 0 0 0 0 0 0 0 0 0 0 0 0 0
0 0 0 0 0 0 0 0 0 0 0 0 0 0 0 0 0 0 0 0 0 0 0 0 0 0 0 0 0 0 0 0 0 0 -0 -0 0 0 0 0 0 0 0 0
0 0 0 0 0 0 0 0 0 0 0 0 0 0 0 0 0 0 0 0 0 0 0 0 0 0 0 0 0 0 0 0 0 0 -0 -0 0 0 0 0 0 0 0 0
0 0 0 0 0 0 0 0 0 0 0 0 0 0 0 0 0 0 0 0 0 0 0 0 0 0 0 0 0 0 0 0 0 0 0 0 0 0 0 0 0 0 0 0
0 0 0 0 0 0 0 0 0 0 0 0 0 0 0 0 0 0 0 0 0 0 0 0 0 0 0 0 0 0 0 0 0 0 0 0 0 0 0 0 0 0 0 0
Wind_Speed
2 3 2 6 7 5 3 2 3 4 1 1 2 3 3 2 3 4 4 4 5 5 4 3 3 3 3 3 3 2 3 1 1 1 1 1 1 1 2 2 2 2 2 2
3 3 6 4 4 3 2 2 2 3 1 2 1 3 3 3 5 6 6 6 6 4 3 4 4 4 4 4 3 3 2 2 1 1 1 1 1 1 1 1 2 2 2 1
5 6 3 3 2 2 2 4 4 2 2 2 1 4 3 3 3 4 4 5 6 7 7 5 5 4 4 4 4 3 2 2 1 2 2 2 2 2 2 2 2 2 2 2
4 4 2 1 2 4 4 5 4 3 2 1 1 3 6 3 2 4 4 4 5 6 6 6 6 5 5 5 4 3 2 2 2 2 3 3 2 1 0 0 1 2 2 2
4 2 2 3 5 5 4 1 3 2 3 1 1 1 8 1 3 6 6 6 6 6 7 7 7 7 5 5 4 3 3 2 2 2 2 3 2 1 0 1 2 2 2 2
5 2 3 4 1 4 4 6 6 5 5 1 2 2 7 5 7 6 6 6 5 5 5 6 5 5 4 3 4 4 4 2 2 2 2 2 3 1 1 1 1 1 2 2
4 3 2 2 2 2 5 6 4 4 4 5 2 2 10 7 6 6 6 6 5 5 5 5 5 6 5 4 4 4 4 3 2 2 2 2 2 2 2 1 0 0 1 1
1 4 3 1 4 4 3 7 7 5 4 4 2 5 9 4 2 3 4 5 4 5 5 5 6 6 6 5 5 4 4 3 3 3 2 1 1 1 1 0 0 0 1 1
5 5 3 1 2 7 5 3 5 7 2 1 5 7 9 2 1 2 3 4 4 4 4 4 4 5 6 6 5 5 5 4 3 3 2 1 1 1 0 1 0 0 1 1
7 3 4 2 4 4 4 7 5 5 4 2 5 5 5 5 3 2 4 5 4 4 4 4 4 4 5 5 4 4 4 4 3 3 2 2 1 0 0 1 1 1 1 1
4 4 3 2 2 3 3 4 5 4 5 5 3 7 6 6 5 5 5 5 6 5 5 5 4 3 4 4 4 4 4 4 3 3 2 2 1 1 0 0 1 1 1 1
3 5 1 4 3 2 4 5 7 5 3 4 3 9 5 3 3 3 4 4 4 5 5 4 4 3 4 4 4 4 4 4 3 3 3 2 2 2 1 1 1 1 1 1
4 6 2 5 5 2 1 2 4 5 5 4 4 8 3 2 0 3 4 4 4 5 4 4 4 4 4 4 4 3 3 4 4 4 3 2 2 2 1 0 1 1 1 1
6 5 5 7 6 2 1 2 4 5 4 4 7 8 6 4 3 3 4 4 5 5 5 5 4 3 3 4 4 4 3 3 4 4 3 3 2 1 1 0 1 1 1 1
5 3 2 3 3 2 3 3 4 5 7 7 7 6 8 6 5 4 4 4 5 5 5 6 5 4 4 4 4 4 4 3 3 4 3 2 2 2 2 1 1 1 2 2
4 3 1 1 1 2 2 2 4 3 3 5 4 6 6 3 2 3 4 6 6 7 7 7 6 5 5 5 5 4 4 4 4 4 3 2 2 2 2 1 1 2 2 2
2 3 3 2 3 2 3 4 4 3 3 5 6 6 2 1 3 6 6 7 8 8 8 7 7 6 6 5 6 6 5 4 4 4 3 3 3 2 1 1 2 2 2 2
4 4 3 1 2 3 7 3 2 2 2 2 3 2 2 3 3 2 4 6 6 6 7 7 6 6 5 5 5 5 5 5 5 4 3 2 2 2 1 2 1 1 1 2
4 6 4 3 2 4 6 2 2 2 2 2 2 1 1 1 3 2 1 3 5 6 6 6 6 6 5 5 6 6 5 5 4 4 3 2 2 2 2 1 1 1 1 2
4 4 5 4 3 5 6 3 1 2 3 2 2 2 1 3 2 3 1 2 3 4 5 6 6 6 6 5 6 7 6 5 4 4 3 2 2 3 2 1 1 1 1 1
2 3 3 3 3 6 6 4 1 3 5 3 2 3 3 3 4 3 1 2 4 5 5 6 7 6 6 6 7 7 5 4 4 3 3 3 2 2 2 2 1 1 1 2
4 3 3 3 3 6 3 1 2 5 3 2 2 2 2 2 1 1 2 3 5 5 6 7 7 5 5 6 7 6 5 3 3 4 4 3 2 2 2 2 2 2 2 2
3 5 5 6 6 5 2 3 3 2 2 2 2 1 3 2 1 1 2 3 4 5 6 6 7 6 4 4 6 7 5 4 5 5 4 2 2 2 2 2 2 2 1 1
2 1 2 2 4 4 4 3 3 2 2 3 1 1 3 3 2 2 2 3 4 4 5 6 7 6 4 4 4 5 5 5 6 5 3 3 2 2 2 1 2 2 1 1
3 1 1 3 5 4 4 3 3 3 3 3 2 1 2 4 3 3 3 3 4 4 3 5 6 6 5 4 4 4 5 6 5 4 3 2 2 2 1 1 1 1 1 2
4 5 5 5 5 3 5 4 1 1 2 1 2 2 2 2 3 3 3 3 4 5 4 4 4 5 5 5 4 4 4 6 6 4 3 2 2 2 2 1 1 1 0 1
Wind_Direction
98 89 206 217 203 200 194 210 263 264 245 122 234 259 256 200 186 199 205 205 210 220 206 159 145 142 129 114 115 125 115 94 92 93 88 73 47 31 25 21 27 33 40 59
49 254 231 207 199 192 182 219 271 311 46 129 246 273 259 213 205 204 206 212 211 207 184 164 155 152 147 150 150 146 141 135 121 131 120 105 91 49 20 355 12 17 25 30
194 236 208 173 187 174 219 198 216 223 26 43 52 320 280 266 224 214 213 211 207 196 191 182 170 165 159 162 165 162 158 147 132 115 94 81 60 38 25 12 4 8 14 19
235 246 197 213 226 168 249 233 200 180 107 312 86 278 279 256 266 237 235 225 212 196 188 183 177 174 179 183 170 159 153 133 124 126 122 122 122 125 246 350 344 1 16 19
246 214 199 234 233 176 212 111 103 115 125 38 2 203 282 280 247 240 232 222 211 196 189 190 189 184 184 179 169 161 146 130 123 115 129 132 130 157 49 36 28 12 10 15
241 242 207 208 198 161 138 73 57 50 70 336 257 182 276 233 219 224 221 211 203 196 189 187 185 177 179 171 166 158 148 148 142 138 144 148 150 142 82 47 29 355 352 1
311 301 266 172 99 48 95 92 41 5 10 257 266 209 252 248 222 203 203 201 199 187 180 177 175 179 182 176 176 165 153 154 153 155 162 167 160 149 156 173 165 347 348 344
197 286 263 199 171 167 159 138 155 189 219 274 301 242 257 268 241 187 184 182 184 182 183 184 188 186 183 180 175 164 159 162 159 163 170 143 130 138 167 205 205 240 263 293
178 248 288 242 160 135 139 158 157 131 147 281 280 283 300 317 62 139 155 161 181 186 185 184 187 188 182 180 182 174 166 172 165 159 142 114 113 126 105 358 7 314 299 320
159 215 288 297 73 44 132 141 105 121 147 245 287 276 263 286 271 193 180 184 187 179 184 188 185 185 181 178 173 163 162 170 158 142 154 143 124 98 10 24 349 341 341 355
135 160 300 19 134 179 110 102 108 115 147 157 244 268 236 231 222 201 201 190 182 182 190 194 189 179 163 153 153 152 148 144 145 150 147 132 109 108 123 7 297 303 352 10
137 123 239 264 258 192 158 158 147 150 201 171 185 265 282 229 217 191 198 193 180 178 179 170 166 156 146 147 146 150 151 149 152 148 139 141 131 115 104 52 331 355 12 0
131 111 66 340 341 8 86 142 142 125 120 154 182 264 310 357 261 196 189 185 173 166 161 155 151 152 153 149 143 145 147 153 146 139 136 127 117 118 117 81 1 29 33 13
112 110 160 199 222 211 228 184 155 130 148 197 221 252 291 290 253 212 187 173 164 158 157 154 151 154 152 143 144 147 143 146 143 137 136 136 133 141 146 92 70 47 61 54
100 130 202 233 243 206 209 210 183 183 185 192 231 234 257 247 224 203 177 157 150 155 161 166 166 165 157 150 149 152 149 136 130 128 127 135 122 107 92 73 55 48 53 49
80 136 141 298 272 229 251 245 201 205 197 220 241 259 258 243 160 159 170 167 172 183 184 175 169 164 165 165 161 155 145 133 128 130 137 128 108 96 90 79 65 61 50 44
84 125 125 246 300 42 283 251 211 203 210 193 217 242 253 173 191 194 188 187 191 190 187 179 177 175 174 171 162 157 153 138 130 133 131 123 123 122 110 95 74 61 53 52
134 114 127 144 83 212 247 251 199 182 243 225 238 267 223 218 222 210 185 186 197 191 182 180 173 167 167 158 153 148 142 140 138 139 141 141 141 134 101 82 71 52 54 56
151 138 124 125 160 271 289 266 160 179 273 251 221 285 323 95 63 360 220 186 197 190 179 168 160 154 150 149 148 140 139 141 142 149 152 149 147 136 117 103 79 67 63 48
72 98 117 132 154 224 249 276 239 130 275 268 192 189 144 97 104 258 259 156 166 155 146 141 136 130 135 139 138 139 144 144 153 160 151 140 141 139 134 131 113 86 93 75
58 61 121 156 198 255 266 292 66 163 241 272 204 197 169 183 210 221 163 145 150 140 131 130 131 135 142 140 136 137 141 157 165 146 129 123 131 139 129 116 99 96 86 69
170 152 172 150 182 254 304 60 161 224 270 262 234 207 183 195 180 147 148 148 140 130 128 132 133 133 135 141 139 139 154 160 138 130 126 125 122 123 116 114 93 79 82 73
192 189 186 188 210 241 266 236 261 239 257 269 242 232 161 150 157 151 150 148 141 137 138 137 135 130 127 142 147 151 164 144 134 130 132 129 115 109 113 124 114 88 83 84
280 154 157 257 272 278 285 285 294 279 270 286 254 199 157 149 155 149 143 137 130 128 137 137 135 137 140 147 152 153 146 138 137 140 142 135 128 112 91 111 131 132 130 117
249 179 162 264 286 311 317 311 319 345 357 12 14 26 151 147 153 156 152 149 144 136 136 142 147 151 155 150 147 143 142 138 136 136 133 130 134 134 119 116 155 168 185 178
213 187 181 225 237 225 270 290 313 351 352 25 61 35 35 143 159 147 148 152 143 140 135 137 144 149 150 146 144 147 145 139 135 134 141 149 148 144 143 141 81 37 72 24